Preview of NWS' New Version of Forecast
This preview is not operational and should not be used for support decisions.

Regional Weather Roundup (RWR)

Issued by Gray - Portland, ME (GYX)

                            
844 
ASUS41 KGYX 211705
RWRGYX
WEATHER ROUNDUP FOR MAINE AND NEW HAMPSHIRE
NATIONAL WEATHER SERVICE GRAY ME
1200 PM EST WED FEB 21 2018

MEZ002-005-006-010-012-015-018-020-021-024-026-027-029-211800-
MAINE
  
CITY           SKY/WX    TMP DP  RH WIND       PRES   REMARKS
PORTLAND       PTSUNNY   58  52  80 S12       30.07F                  
SANFORD        FAIR      59  54  83 SW12G17   30.09F                  
BAR HARBOR     LGT RAIN  43  43 100 SW10      30.06F VSB 1/4          
WISCASSET      CLOUDY    46  46 100 S6        30.07F                  
ROCKLAND       CLOUDY    46  46 100 SW9       30.06F FOG              
FRYEBURG       FAIR      64  51  62 SW12G21   30.03F                  
LEWISTONAUBURN FAIR      50  49  96 CALM      30.04F                  
AUGUSTA        FOG       41  41 100 S6        30.04F VSB 1/4          
WATERVILLE     CLOUDY    41  41 100 SW6       30.00F FOG              
BANGOR         CLOUDY    42  42 100 SW8       30.03F FOG              
GREENVILLE       N/A     50  46  86 E6        29.95F                  
MILLINOCKET    FAIR      44  42  93 SE7       29.98F                  
HOULTON        CLOUDY    44  43  96 S9        29.94F                  
PRESQUE ISLE   CLOUDY    39  36  89 SE10      29.92F                  
FRENCHVILLE    FOG       38  38 100 S8        29.85F VSB<1/4          
CARIBOU        CLOUDY    39  37  92 S10       29.89F                  
$$

NHZ002-005-008-009-011-012-014-211800-
NEW HAMPSHIRE
  
CITY           SKY/WX    TMP DP  RH WIND       PRES   REMARKS
PORTSMOUTH     PTSUNNY   65  57  76 SW7       30.09F                  
ROCHESTER      FAIR      63  55  75 VRB5      30.09F                  
NASHUA         SUNNY     70  57  64 SW9G22    30.13F                  
MANCHESTER     PTSUNNY   69  55  60 S10G22    30.10F                  
CONCORD        FAIR      63  55  75 SW8       30.12F                  
LACONIA        FAIR      58  52  80 SW12      30.09F                  
PLYMOUTH       FAIR      52  39  61 CALM      30.08F                  
BERLIN         FAIR      66  51  58 S14G26    30.01F                  
WHITEFIELD     FAIR      68  52  56 SW9       30.01F                  
JAFFREY        FAIR      61  57  87 SW8       30.15F                  
KEENE          FAIR      60  55  83 CALM      30.14F                  
LEBANON        PTSUNNY   50  49  96 SW5       30.08F FOG              
MT WASHINGTON  MOSUNNY   46  45  93 W75G92      N/A                   
$$

VTZ005-007-008-211800-
VERMONT
  
CITY           SKY/WX    TMP DP  RH WIND       PRES   REMARKS
ST JOHNSBURY     N/A     61  51  70 MISG      30.00F                  
MONTPELIER     FAIR      69  52  54 SW13      30.06F                  
BURLINGTON     FAIR      69  53  56 S18G28    30.00S                  
$$

MAZ007-012-024-CTZ003-RIZ002-NYZ038-NYZ072-211800-
SOUTHERN NEW ENGLAND AND NY
  
CITY           SKY/WX    TMP DP  RH WIND       PRES   REMARKS
BOSTON         PTSUNNY   68  57  68 SW22      30.15F                  
WORCESTER      FAIR      59  55  87 SW17      30.19F                  
NANTUCKET      FOG       47  47 100 SW15      30.30F VSB 1/4          
PROVIDENCE     CLOUDY    62  58  86 SW15G25   30.23F                  
HARTFORD       PTSUNNY   70  57  63 S10       30.19F                  
ALBANY         PTSUNNY   67  54  63 S17G23    30.12F                  
NEW YORK CITY  FAIR      70  58  65 SW13G21   30.24F                  
$$

ANZ081-ANZ082-ANZ150-NHZ014-MEZ023>029-211800-
COASTAL MARINE OBSERVATIONS
  
STATION/POSITION TIME  TEMP    WIND        PRES    WAVE
                       AIR SEA DIR/SP/G            HT/PER
                 (UTC) (F)     (DEG/KT/KT) (MB)    (FT/S)
MOUNT DESERT ROC 1700   46     200/ 23/ 25 1018.4F
MATINICUS ROCK   1600   45     230/ 22/ 23 1019.1F
ISLE OF SHOALS   1600   59     230/ 19/ 20 1020.4F
JEFFREYS LEDGE   1636      42                N/A     4/12
GEORGES BANK BUO 1550   49 61              1025.4    8/ 8
$$

.............KEY..............
   WCI - WIND CHILL
   TC  - TEMPERATURE IN CELSIUS
   VSB - VISIBILITY IN MILES
   HX  - HEAT INDEX
   FAIR- INDICATES FEW OR NO CLOUDS BELOW 12,000 FT, WITH NO 
         SIGNIFICANT WEATHER AND/OR OBSTRUCTIONS TO VISIBILITY.